This demonstration page uses our WeatherBlox Daily Observations layout. Learn more.

Left ArrowRight Arrow

39.95238, -75.16362

Hourly Observations for October 1, 2022

Temp ( °F °C ) Dew Point ( °F °C ) Humidity (%) Winds ( mph kmh ) Pressure ( in mb ) Visibility ( mi km ) Precip ( " mm )
12:54 am 00:54 Cloudy with Light Rain 59 15 55 12.8 87 87 NE 17 28 30.04 1017 10 16 0.01 0.25
1:54 am 01:54 Cloudy with Heavy Rain 59 15 55 12.8 87 87 NE 21 33 30.02 1017 6 10 0.08 2.03
2:20 am 02:20 Cloudy with Rain 59 15 56 13.3 90 90 NE 16 26 30.04 1017 6 10 0.09 2.29
2:43 am 02:43 Cloudy with Rain 58 14.4 55 12.8 90 90 NE 14 22 30.04 1017 6 10 0.19 4.83
2:54 am 02:54 Cloudy with Heavy Rain 58 14.4 55 12.8 90 90 NE 22 35 29.99 1016 5 8 0.23 5.84
3:27 am 03:27 Cloudy with Light Rain 58 14.4 54 12.2 87 87 NNE 21 33 29.99 1016 9 14 0.09 2.29
3:36 am 03:36 Cloudy with Light Rain 57 13.9 54 12.2 89 89 NNE 22 35 29.98 1015 10 16 0.09 2.29
3:54 am 03:54 Cloudy 57 13.9 53 11.7 87 87 NE 22 35 29.98 1015 10 16 0.09 2.29
4:18 am 04:18 Cloudy with Heavy Rain 57 13.9 54 12.2 89 89 NNE 22 35 30.00 1016 6 10 0.07 1.78
4:54 am 04:54 Cloudy with Heavy Rain 57 13.9 53 11.7 87 87 NE 26 43 29.97 1015 5 8 0.21 5.33
5:22 am 05:22 Cloudy with Light Rain 57 13.9 53 11.7 87 87 NE 15 24 30.00 1016 9 14 0.07 1.78
5:54 am 05:54 Cloudy with Heavy Rain 56 13.3 53 11.7 90 90 NE 23 37 29.97 1015 4 6 0.17 4.32
6:20 am 06:20 Cloudy with Light Rain 56 13.3 53 11.7 90 90 NE 21 33 29.97 1015 6 10 0.02 0.51
6:38 am 06:38 Cloudy with Light Rain 56 13.3 53 11.7 90 90 NE 21 33 29.97 1015 7 11 0.03 0.76
6:54 am 06:54 Cloudy 56 13.3 52 11.1 87 87 NE 22 35 29.97 1015 10 16 0.03 0.76
7:54 am 07:54 Cloudy 56 13.3 52 11.1 87 87 NE 17 28 29.98 1015 10 16 0.00 0.00
8:54 am 08:54 Cloudy with Light Rain 56 13.3 53 11.7 90 90 NE 13 20 29.98 1015 3 5 0.01 0.25
9:16 am 09:16 Cloudy with Light Rain 56 13.3 53 11.7 90 90 NE 20 31 29.97 1015 4 6 0.02 0.51
9:35 am 09:35 Cloudy with Light Rain 57 13.9 53 11.7 87 87 NE 20 31 29.98 1015 10 16 0.03 0.76
9:54 am 09:54 Cloudy 57 13.9 53 11.7 87 87 NE 16 26 29.97 1015 10 16 0.03 0.76
10:54 am 10:54 Cloudy 58 14.4 54 12.2 87 87 NE 16 26 29.96 1015 10 16 0.00 0.00
11:54 am 11:54 Cloudy 58 14.4 55 12.8 90 90 NE 15 24 29.95 1014 10 16 0.00 0.00
12:36 pm 12:36 Cloudy 59 15 55 12.8 87 87 NE 14 22 29.95 1014 10 16 0.00 0.00
12:54 pm 12:54 Cloudy 60 15.6 55 12.8 83 83 NE 13 20 29.94 1014 10 16 0.00 0.00
1:54 pm 13:54 Cloudy 60 15.6 56 13.3 86 86 NE 13 20 29.93 1014 10 16 0.00 0.00
2:54 pm 14:54 Cloudy 61 16.1 57 13.9 87 87 NE 12 19 29.92 1013 10 16 0.00 0.00
3:30 pm 15:30 Cloudy with Mist and Fog 62 16.7 58 14.4 86 86 NE 13 20 29.92 1013 4 6 0.00 0.00
3:54 pm 15:54 Cloudy with Mist and Fog 62 16.7 58 14.4 86 86 NE 13 20 29.91 1013 5 8 0.00 0.00
4:47 pm 16:47 Cloudy with Mist and Fog 62 16.7 59 15 90 90 NE 12 19 29.91 1013 3 4 0.00 0.00
4:54 pm 16:54 Cloudy with Mist and Fog 62 16.7 58 14.4 86 86 NE 15 24 29.91 1013 2 3 0.00 0.00
5:54 pm 17:54 Cloudy with Mist and Fog 62 16.7 59 15 90 90 NE 13 20 29.92 1013 2 3 0.00 0.00
6:50 pm 18:50 Cloudy with Mist and Fog 63 17 59 15 88 88 NE 14 22 29.92 1013 6 10 0.01 0.13
6:54 pm 18:54 Cloudy with Mist and Fog 62 16.7 59 15 90 90 NE 15 24 29.92 1013 6 10 0.01 0.13
7:13 pm 19:13 Cloudy 62 16.7 59 15 90 90 NE 14 22 29.92 1013 10 16 0.00 0.00
7:39 pm 19:39 Cloudy with Mist and Fog 61 16.1 58 14.4 90 90 NE 14 22 29.93 1014 6 10 0.00 0.00
7:54 pm 19:54 Cloudy with Mist and Fog 61 16.1 58 14.4 90 90 NE 15 24 29.93 1013 5 8 0.00 0.00
8:54 pm 20:54 Cloudy with Mist and Fog 61 16.1 58 14.4 90 90 NE 14 22 29.93 1014 6 10 0.00 0.00
9:14 pm 21:14 Cloudy 61 16.1 58 14.4 90 90 NE 15 24 29.94 1014 8 13 0.00 0.00
9:54 pm 21:54 Cloudy 61 16.1 58 14.4 90 90 NE 16 26 29.93 1014 8 13 0.00 0.00
10:34 pm 22:34 Cloudy 61 16.1 58 14.4 90 90 NE 14 22 29.93 1014 9 14 0.00 0.00
10:54 pm 22:54 Cloudy 61 16.1 58 14.4 90 90 NE 12 19 29.93 1013 9 14 0.00 0.00
11:10 pm 23:10 Cloudy 61 16.1 58 14.4 90 90 ENE 13 20 29.93 1014 10 16 0.00 0.00
11:54 pm 23:54 Cloudy 61 16.1 58 14.4 90 90 NE 15 24 29.93 1014 10 16 0.00 0.00

Powered by AerisWeather